カタログに戻る

SL-12 R/B(2)

LostMEO
NORAD 23739·ROCKET BODY·🇷🇺 Russia

打ち上げ Dec 14, 1995 から Baikonur Cosmodrome

Loading…

次のパス (今後24時間)

TLE

古いSource: Space-Track

元期: Aug 6, 2026, 02:13 UTC

1 23739U 95068F   26218.09252670  .00000106  00000-0  00000+0 0  9998
2 23739  65.4775 200.0457 0012552 195.9624 340.8446  2.13375454238757

AllMySatでSL-12 R/B(2)をリアルタイム追跡

Download on the App Store